Time,TemperatureF,DewpointF,PressureIn,WindDirection,WindDirectionDegrees,WindSpeedMPH,WindSpeedGustMPH,Humidity,HourlyPrecipIn,Conditions,Clouds,dailyrainin,SoftwareType,DateUTC
2013-02-23 00:00:00,20.3,16.2,30.12,SE,135,0.0,0.0,84,0.00,,,0.06,meteohub,2013-02-23 06:00:00,
2013-02-23 00:05:00,20.3,16.2,30.12,SE,135,0.0,0.0,84,0.00,,,0.00,meteohub,2013-02-23 06:05:00,
2013-02-23 00:10:00,20.3,16.2,30.12,SE,135,0.0,0.0,84,0.00,,,0.00,meteohub,2013-02-23 06:10:00,
2013-02-23 00:15:00,20.3,16.2,30.12,SE,135,0.0,0.0,84,0.00,,,0.00,meteohub,2013-02-23 06:15:00,
2013-02-23 00:21:00,20.3,16.2,30.12,SE,135,0.0,0.0,84,0.00,,,0.00,meteohub,2013-02-23 06:21:00,
2013-02-23 00:26:00,20.1,16.0,30.12,SE,135,0.0,0.0,84,0.00,,,0.00,meteohub,2013-02-23 06:26:00,
2013-02-23 00:31:00,19.9,16.0,30.12,SE,135,0.0,0.0,84,0.00,,,0.00,meteohub,2013-02-23 06:31:00,
2013-02-23 00:36:00,19.9,16.0,30.12,SE,135,0.0,0.0,84,0.00,,,0.00,meteohub,2013-02-23 06:36:00,
2013-02-23 00:41:00,19.9,16.0,30.12,SE,135,0.0,0.0,84,0.00,,,0.00,meteohub,2013-02-23 06:41:00,
2013-02-23 00:46:00,19.9,16.0,30.11,SE,135,0.0,0.0,84,0.00,,,0.00,meteohub,2013-02-23 06:46:00,
2013-02-23 00:51:00,19.9,16.2,30.11,SE,135,0.0,0.0,85,0.00,,,0.00,meteohub,2013-02-23 06:51:00,
2013-02-23 00:56:00,20.3,16.5,30.11,SE,135,0.0,0.0,85,0.00,,,0.00,meteohub,2013-02-23 06:56:00,
2013-02-23 01:01:00,20.3,16.5,30.11,SE,135,0.0,0.0,85,0.00,,,0.00,meteohub,2013-02-23 07:01:00,
2013-02-23 01:06:00,20.3,16.5,30.11,SE,135,0.0,0.0,85,0.00,,,0.00,meteohub,2013-02-23 07:06:00,
2013-02-23 01:11:00,20.3,16.5,30.11,SE,135,0.0,0.0,85,0.00,,,0.00,meteohub,2013-02-23 07:11:00,
2013-02-23 01:16:00,20.3,16.5,30.11,SE,135,0.0,0.0,85,0.00,,,0.00,meteohub,2013-02-23 07:16:00,
2013-02-23 01:21:00,19.9,16.2,30.11,SE,135,0.0,0.0,85,0.00,,,0.00,meteohub,2013-02-23 07:21:00,
2013-02-23 01:26:00,19.9,16.2,30.11,SE,135,0.0,0.0,85,0.00,,,0.00,meteohub,2013-02-23 07:26:00,
2013-02-23 01:31:00,19.8,16.0,30.11,SE,135,0.0,0.0,85,0.00,,,0.00,meteohub,2013-02-23 07:31:00,
2013-02-23 01:36:00,19.6,15.8,30.11,SE,135,0.0,0.0,85,0.00,,,0.00,meteohub,2013-02-23 07:36:00,
2013-02-23 01:41:00,19.6,15.8,30.11,SE,135,0.0,0.0,85,0.00,,,0.00,meteohub,2013-02-23 07:41:00,
2013-02-23 01:46:00,19.6,15.8,30.12,SE,135,0.0,0.0,85,0.00,,,0.00,meteohub,2013-02-23 07:46:00,
2013-02-23 01:51:00,19.6,15.8,30.12,SE,135,0.0,0.0,85,0.00,,,0.00,meteohub,2013-02-23 07:51:00,
2013-02-23 01:56:00,19.6,15.8,30.12,SE,135,0.0,0.0,85,0.00,,,0.00,meteohub,2013-02-23 07:56:00,
2013-02-23 02:01:00,19.6,15.8,30.12,SE,135,0.0,0.0,85,0.00,,,0.00,meteohub,2013-02-23 08:01:00,
2013-02-23 02:06:00,19.6,15.8,30.11,SE,135,0.0,0.0,85,0.00,,,0.00,meteohub,2013-02-23 08:06:00,
2013-02-23 02:11:00,19.6,15.8,30.11,SE,135,0.0,0.0,85,0.00,,,0.00,meteohub,2013-02-23 08:11:00,
2013-02-23 02:16:00,19.2,15.4,30.11,SE,135,0.0,0.0,85,0.00,,,0.00,meteohub,2013-02-23 08:16:00,
2013-02-23 02:21:00,19.0,15.3,30.11,SE,135,0.0,0.0,85,0.00,,,0.00,meteohub,2013-02-23 08:21:00,
2013-02-23 02:26:00,18.9,15.1,30.10,SE,135,0.0,0.0,85,0.00,,,0.00,meteohub,2013-02-23 08:26:00,
2013-02-23 02:31:00,18.9,15.1,30.10,SE,135,0.0,0.0,85,0.00,,,0.00,meteohub,2013-02-23 08:31:00,
2013-02-23 02:36:00,18.7,14.9,30.10,SE,135,0.0,0.0,85,0.00,,,0.00,meteohub,2013-02-23 08:36:00,
2013-02-23 02:41:00,18.5,14.7,30.10,SE,135,0.0,0.0,85,0.00,,,0.00,meteohub,2013-02-23 08:41:00,
2013-02-23 02:46:00,18.3,14.5,30.10,SE,135,0.0,0.0,85,0.00,,,0.00,meteohub,2013-02-23 08:46:00,
2013-02-23 02:51:00,18.5,14.7,30.10,SE,135,0.0,0.0,85,0.00,,,0.00,meteohub,2013-02-23 08:51:00,
2013-02-23 02:56:00,18.5,14.7,30.10,SE,135,0.0,0.0,85,0.00,,,0.00,meteohub,2013-02-23 08:56:00,
2013-02-23 03:01:00,18.9,15.1,30.10,SE,135,0.0,0.0,85,0.00,,,0.00,meteohub,2013-02-23 09:01:00,
2013-02-23 03:06:00,18.9,15.1,30.08,SE,135,0.0,0.0,85,0.00,,,0.00,meteohub,2013-02-23 09:06:00,
2013-02-23 03:11:00,18.9,15.1,30.08,SE,135,0.0,0.0,85,0.00,,,0.00,meteohub,2013-02-23 09:11:00,
2013-02-23 03:16:00,18.7,14.9,30.08,SE,135,0.0,0.0,85,0.00,,,0.00,meteohub,2013-02-23 09:16:00,
2013-02-23 03:21:00,18.9,15.1,30.08,SE,135,0.0,0.0,85,0.00,,,0.00,meteohub,2013-02-23 09:21:00,
2013-02-23 03:26:00,18.5,14.7,30.08,SE,135,0.0,0.0,85,0.00,,,0.00,meteohub,2013-02-23 09:26:00,
2013-02-23 03:31:00,18.1,14.4,30.09,SE,135,0.0,0.0,85,0.00,,,0.00,meteohub,2013-02-23 09:31:00,
2013-02-23 03:36:00,18.1,14.4,30.09,SE,135,0.0,0.0,85,0.00,,,0.00,meteohub,2013-02-23 09:36:00,
2013-02-23 03:41:00,18.1,14.4,30.09,SE,135,0.0,0.0,85,0.00,,,0.00,meteohub,2013-02-23 09:41:00,
2013-02-23 03:46:00,18.1,14.4,30.07,SE,135,0.0,0.0,85,0.00,,,0.00,meteohub,2013-02-23 09:46:00,
2013-02-23 03:51:00,17.8,14.0,30.07,SE,135,0.0,0.0,85,0.00,,,0.00,meteohub,2013-02-23 09:51:00,
2013-02-23 03:56:00,17.8,14.0,30.07,SE,135,0.0,0.0,85,0.00,,,0.00,meteohub,2013-02-23 09:56:00,
2013-02-23 04:01:00,17.6,13.8,30.07,SE,135,0.0,0.0,85,0.00,,,0.00,meteohub,2013-02-23 10:01:00,
2013-02-23 04:06:00,17.4,13.6,30.07,SE,135,0.0,0.0,85,0.00,,,0.00,meteohub,2013-02-23 10:06:00,
2013-02-23 04:11:00,17.4,13.6,30.07,SE,135,0.0,0.0,85,0.00,,,0.00,meteohub,2013-02-23 10:11:00,
2013-02-23 04:16:00,17.4,13.6,30.07,SE,135,0.0,0.0,85,0.00,,,0.00,meteohub,2013-02-23 10:16:00,
2013-02-23 04:21:00,17.4,14.0,30.07,SE,135,0.0,0.0,86,0.00,,,0.00,meteohub,2013-02-23 10:21:00,
2013-02-23 04:26:00,17.4,14.0,30.08,SE,135,0.0,0.0,86,0.00,,,0.00,meteohub,2013-02-23 10:26:00,
2013-02-23 04:31:00,17.1,13.3,30.09,SE,135,0.0,0.0,85,0.00,,,0.00,meteohub,2013-02-23 10:31:00,
2013-02-23 04:36:00,16.9,13.1,30.09,SE,135,0.0,0.0,85,0.00,,,0.00,meteohub,2013-02-23 10:36:00,
2013-02-23 04:41:00,17.1,13.3,30.09,SE,135,0.0,0.0,85,0.00,,,0.00,meteohub,2013-02-23 10:41:00,
2013-02-23 04:46:00,16.9,13.1,30.08,SE,135,0.0,0.0,85,0.00,,,0.00,meteohub,2013-02-23 10:46:00,
2013-02-23 04:51:00,17.1,13.6,30.08,SE,135,0.0,0.0,86,0.00,,,0.00,meteohub,2013-02-23 10:51:00,
2013-02-23 04:56:00,17.4,14.0,30.08,SE,135,0.0,0.0,86,0.00,,,0.00,meteohub,2013-02-23 10:56:00,
2013-02-23 05:01:00,17.4,14.0,30.08,SE,135,0.0,0.0,86,0.00,,,0.00,meteohub,2013-02-23 11:01:00,
2013-02-23 05:06:00,17.4,14.0,30.08,SE,135,0.0,0.0,86,0.00,,,0.00,meteohub,2013-02-23 11:06:00,
2013-02-23 05:11:00,17.4,14.0,30.08,SE,135,0.0,0.0,86,0.00,,,0.00,meteohub,2013-02-23 11:11:00,
2013-02-23 05:16:00,17.4,14.0,30.08,SE,135,0.0,0.0,86,0.00,,,0.00,meteohub,2013-02-23 11:16:00,
2013-02-23 05:21:00,17.4,14.0,30.08,SE,135,0.0,0.0,86,0.00,,,0.00,meteohub,2013-02-23 11:21:00,
2013-02-23 05:26:00,17.4,14.0,30.07,SE,135,0.0,0.0,86,0.00,,,0.00,meteohub,2013-02-23 11:26:00,
2013-02-23 05:31:00,17.4,14.0,30.07,SE,135,0.0,0.0,86,0.00,,,0.00,meteohub,2013-02-23 11:31:00,
2013-02-23 05:36:00,17.4,14.0,30.07,SE,135,0.0,0.0,86,0.00,,,0.00,meteohub,2013-02-23 11:36:00,
2013-02-23 05:41:00,17.4,14.0,30.07,SE,135,0.0,0.0,86,0.00,,,0.00,meteohub,2013-02-23 11:41:00,
2013-02-23 05:46:00,17.2,13.8,30.07,SE,135,0.0,0.0,86,0.00,,,0.00,meteohub,2013-02-23 11:46:00,
2013-02-23 05:51:00,17.4,14.0,30.07,SE,135,0.0,0.0,86,0.00,,,0.00,meteohub,2013-02-23 11:51:00,
2013-02-23 05:57:00,17.1,13.6,30.07,SE,135,0.0,0.0,86,0.00,,,0.00,meteohub,2013-02-23 11:57:00,
2013-02-23 06:02:00,17.1,13.6,30.07,SE,135,0.0,0.0,86,0.00,,,0.00,meteohub,2013-02-23 12:02:00,
2013-02-23 06:07:00,17.1,13.6,30.07,SE,135,0.0,0.0,86,0.00,,,0.00,meteohub,2013-02-23 12:07:00,
2013-02-23 06:12:00,16.9,13.5,30.07,SE,135,0.0,0.0,86,0.00,,,0.00,meteohub,2013-02-23 12:12:00,
2013-02-23 06:17:00,16.9,13.5,30.07,SE,135,0.0,0.0,86,0.00,,,0.00,meteohub,2013-02-23 12:17:00,
2013-02-23 06:22:00,16.9,13.5,30.07,SE,135,0.0,0.0,86,0.00,,,0.00,meteohub,2013-02-23 12:22:00,
2013-02-23 06:27:00,16.7,13.3,30.06,SE,135,0.0,0.0,86,0.00,,,0.00,meteohub,2013-02-23 12:27:00,
2013-02-23 06:32:00,16.7,13.3,30.06,SE,135,1.0,0.0,86,0.00,,,0.00,meteohub,2013-02-23 12:32:00,
2013-02-23 06:37:00,16.7,13.3,30.06,SE,135,0.0,2.0,86,0.00,,,0.00,meteohub,2013-02-23 12:37:00,
2013-02-23 06:42:00,16.7,13.3,30.06,SE,135,0.0,2.0,86,0.00,,,0.00,meteohub,2013-02-23 12:42:00,
2013-02-23 06:47:00,16.7,13.3,30.06,SE,135,0.0,2.0,86,0.00,,,0.00,meteohub,2013-02-23 12:47:00,
2013-02-23 06:52:00,16.7,13.3,30.06,SE,135,0.0,0.0,86,0.00,,,0.00,meteohub,2013-02-23 12:52:00,
2013-02-23 06:57:00,16.7,13.3,30.06,SE,135,0.0,0.0,86,0.00,,,0.00,meteohub,2013-02-23 12:57:00,
2013-02-23 07:02:00,16.3,12.9,30.06,SE,135,0.0,0.0,86,0.00,,,0.00,meteohub,2013-02-23 13:02:00,
2013-02-23 07:07:00,16.3,12.9,30.07,SE,135,0.0,0.0,86,0.00,,,0.00,meteohub,2013-02-23 13:07:00,
2013-02-23 07:12:00,16.2,12.7,30.08,SE,135,0.0,0.0,86,0.00,,,0.00,meteohub,2013-02-23 13:12:00,
2013-02-23 07:17:00,16.2,12.7,30.08,SE,135,0.0,0.0,86,0.00,,,0.00,meteohub,2013-02-23 13:17:00,
2013-02-23 07:22:00,16.3,12.9,30.07,SE,135,0.0,0.0,86,0.00,,,0.00,meteohub,2013-02-23 13:22:00,
2013-02-23 07:27:00,16.3,12.9,30.06,SE,135,0.0,0.0,86,0.00,,,0.00,meteohub,2013-02-23 13:27:00,
2013-02-23 07:32:00,16.7,13.3,30.06,SE,135,0.0,0.0,86,0.00,,,0.00,meteohub,2013-02-23 13:32:00,
2013-02-23 07:37:00,16.5,13.1,30.06,SE,135,0.0,0.0,86,0.00,,,0.00,meteohub,2013-02-23 13:37:00,
2013-02-23 07:42:00,16.7,13.3,30.06,SE,135,0.0,0.0,86,0.00,,,0.00,meteohub,2013-02-23 13:42:00,
2013-02-23 07:47:00,16.9,13.5,30.06,SE,135,0.0,0.0,86,0.00,,,0.00,meteohub,2013-02-23 13:47:00,
2013-02-23 07:52:00,17.1,13.6,30.06,SE,135,0.0,0.0,86,0.00,,,0.00,meteohub,2013-02-23 13:52:00,
2013-02-23 07:57:00,17.4,14.2,30.06,SE,135,0.0,0.0,87,0.00,,,0.00,meteohub,2013-02-23 13:57:00,
2013-02-23 08:02:00,18.1,14.9,30.05,SE,135,0.0,0.0,87,0.00,,,0.00,meteohub,2013-02-23 14:02:00,
2013-02-23 08:07:00,19.6,16.3,30.06,SE,135,2.0,0.0,87,0.00,,,0.00,meteohub,2013-02-23 14:07:00,
2013-02-23 08:12:00,21.0,18.0,30.05,SE,135,0.0,2.0,88,0.00,,,0.00,meteohub,2013-02-23 14:12:00,
2013-02-23 08:17:00,23.2,20.1,30.04,SE,135,2.0,2.0,88,0.00,,,0.00,meteohub,2013-02-23 14:17:00,
2013-02-23 08:22:00,24.6,21.9,30.04,SE,135,0.0,2.0,89,0.00,,,0.00,meteohub,2013-02-23 14:22:00,
2013-02-23 08:27:00,25.3,22.3,30.05,SE,135,0.0,2.0,88,0.00,,,0.00,meteohub,2013-02-23 14:27:00,
2013-02-23 08:32:00,26.8,23.7,30.04,SE,135,2.0,2.0,88,0.00,,,0.00,meteohub,2013-02-23 14:32:00,
2013-02-23 08:37:00,27.5,24.1,30.04,SE,135,2.0,2.0,87,0.00,,,0.00,meteohub,2013-02-23 14:37:00,
2013-02-23 08:42:00,28.2,24.3,30.04,SE,135,1.0,2.0,85,0.00,,,0.00,meteohub,2013-02-23 14:42:00,
2013-02-23 08:47:00,28.0,23.9,30.04,SE,135,0.0,2.0,84,0.00,,,0.00,meteohub,2013-02-23 14:47:00,
2013-02-23 08:52:00,28.2,24.1,30.04,SE,135,0.0,2.0,84,0.00,,,0.00,meteohub,2013-02-23 14:52:00,
2013-02-23 08:57:00,28.9,24.4,30.04,SE,135,0.0,2.0,83,0.00,,,0.00,meteohub,2013-02-23 14:57:00,
2013-02-23 09:02:00,29.3,24.8,30.03,SE,135,2.0,2.0,83,0.00,,,0.00,meteohub,2013-02-23 15:02:00,
2013-02-23 09:07:00,29.3,24.4,30.05,SE,135,0.0,2.0,82,0.00,,,0.00,meteohub,2013-02-23 15:07:00,
2013-02-23 09:12:00,29.3,24.3,30.05,SE,135,3.0,3.0,81,0.00,,,0.00,meteohub,2013-02-23 15:12:00,
2013-02-23 09:17:00,28.9,23.9,30.05,SE,135,4.0,4.0,81,0.00,,,0.00,meteohub,2013-02-23 15:17:00,
2013-02-23 09:22:00,28.9,23.5,30.05,SE,135,2.0,4.0,80,0.00,,,0.00,meteohub,2013-02-23 15:22:00,
2013-02-23 09:27:00,28.9,23.5,30.06,SE,135,0.0,4.0,80,0.00,,,0.00,meteohub,2013-02-23 15:27:00,
2013-02-23 09:32:00,29.3,23.9,30.06,SE,135,3.0,4.0,80,0.00,,,0.00,meteohub,2013-02-23 15:32:00,
2013-02-23 09:37:00,29.1,23.4,30.06,SE,135,3.0,4.0,79,0.00,,,0.00,meteohub,2013-02-23 15:37:00,
2013-02-23 09:42:00,29.3,23.4,30.06,SE,135,2.0,5.0,78,0.00,,,0.00,meteohub,2013-02-23 15:42:00,
2013-02-23 09:47:00,28.9,23.0,30.09,SE,135,3.0,5.0,78,0.00,,,0.00,meteohub,2013-02-23 15:47:00,
2013-02-23 09:52:00,29.1,23.2,30.09,SE,135,4.0,4.0,78,0.00,,,0.00,meteohub,2013-02-23 15:52:00,
2013-02-23 09:57:00,29.3,23.4,30.09,SE,135,4.0,4.0,78,0.00,,,0.00,meteohub,2013-02-23 15:57:00,
2013-02-23 10:02:00,29.5,23.2,30.09,SE,135,1.0,4.0,77,0.00,,,0.00,meteohub,2013-02-23 16:02:00,
2013-02-23 10:07:00,29.8,23.5,30.09,SE,135,4.0,4.0,77,0.00,,,0.00,meteohub,2013-02-23 16:07:00,
2013-02-23 10:12:00,30.0,23.4,30.09,SE,135,4.0,4.0,76,0.00,,,0.00,meteohub,2013-02-23 16:12:00,
2013-02-23 10:17:00,30.4,23.7,30.09,SE,135,3.0,6.0,76,0.00,,,0.00,meteohub,2013-02-23 16:17:00,
2013-02-23 10:22:00,30.4,23.7,30.09,SE,135,2.0,6.0,76,0.00,,,0.00,meteohub,2013-02-23 16:22:00,
2013-02-23 10:27:00,30.6,23.9,30.08,SE,135,4.0,6.0,76,0.00,,,0.00,meteohub,2013-02-23 16:27:00,
2013-02-23 10:32:00,31.1,24.1,30.08,SE,135,4.0,4.0,75,0.00,,,0.00,meteohub,2013-02-23 16:32:00,
2013-02-23 10:37:00,31.1,23.7,30.08,SE,135,3.0,4.0,74,0.00,,,0.00,meteohub,2013-02-23 16:37:00,
2013-02-23 10:43:00,30.7,23.2,30.08,SE,135,0.0,6.0,73,0.00,,,0.00,meteohub,2013-02-23 16:43:00,
2013-02-23 10:48:00,30.7,23.2,30.08,SE,135,4.0,6.0,73,0.00,,,0.00,meteohub,2013-02-23 16:48:00,
2013-02-23 10:53:00,30.9,23.4,30.08,SE,135,4.0,6.0,73,0.00,,,0.00,meteohub,2013-02-23 16:53:00,
2013-02-23 10:58:00,31.5,24.1,30.08,SE,135,3.0,6.0,74,0.00,,,0.00,meteohub,2013-02-23 16:58:00,
2013-02-23 11:03:00,31.8,24.1,30.08,SE,135,4.0,8.0,73,0.00,,,0.00,meteohub,2013-02-23 17:03:00,
2013-02-23 11:08:00,32.5,24.8,30.07,SE,135,6.0,8.0,73,0.00,,,0.00,meteohub,2013-02-23 17:08:00,
2013-02-23 11:13:00,32.5,24.8,30.07,SE,135,3.0,7.0,73,0.03,,,0.03,meteohub,2013-02-23 17:13:00,
2013-02-23 11:18:00,32.4,24.3,30.07,SE,135,4.0,7.0,72,0.03,,,0.03,meteohub,2013-02-23 17:18:00,
2013-02-23 11:23:00,32.5,24.4,30.07,SE,135,2.0,6.0,72,0.03,,,0.03,meteohub,2013-02-23 17:23:00,
2013-02-23 11:28:00,32.7,24.6,30.06,SE,135,0.0,4.0,72,0.03,,,0.03,meteohub,2013-02-23 17:28:00,
2013-02-23 11:33:00,33.1,25.0,30.06,South,180,3.0,7.0,72,0.03,,,0.03,meteohub,2013-02-23 17:33:00,
2013-02-23 11:38:00,33.4,25.3,30.06,SSW,203,6.0,7.0,72,0.03,,,0.03,meteohub,2013-02-23 17:38:00,
2013-02-23 11:43:00,34.0,25.9,30.06,SSW,203,4.0,7.0,72,0.06,,,0.06,meteohub,2013-02-23 17:43:00,
2013-02-23 11:48:00,34.2,25.3,30.04,SSW,203,4.0,6.0,70,0.06,,,0.06,meteohub,2013-02-23 17:48:00,
2013-02-23 11:53:00,34.2,25.0,30.04,SSW,203,8.0,8.0,69,0.06,,,0.06,meteohub,2013-02-23 17:53:00,
2013-02-23 11:58:00,34.0,24.3,30.04,SSW,203,6.0,8.0,67,0.06,,,0.06,meteohub,2013-02-23 17:58:00,
2013-02-23 12:03:00,34.0,24.6,30.04,SSW,203,5.0,8.0,68,0.06,,,0.06,meteohub,2013-02-23 18:03:00,
2013-02-23 12:08:00,34.0,24.8,30.04,SSW,203,3.0,8.0,69,0.08,,,0.08,meteohub,2013-02-23 18:08:00,
2013-02-23 12:13:00,34.0,24.6,30.04,SSW,203,0.0,6.0,68,0.05,,,0.08,meteohub,2013-02-23 18:13:00,
2013-02-23 12:18:00,34.2,25.0,30.04,WNW,293,3.0,7.0,69,0.05,,,0.08,meteohub,2013-02-23 18:18:00,
2013-02-23 12:23:00,34.3,25.2,30.04,West,270,6.0,7.0,69,0.05,,,0.08,meteohub,2013-02-23 18:23:00,
2013-02-23 12:28:00,34.7,25.5,30.02,South,180,7.0,7.0,69,0.05,,,0.08,meteohub,2013-02-23 18:28:00,
2013-02-23 12:33:00,34.3,24.8,30.02,SSW,203,4.0,6.0,68,0.05,,,0.08,meteohub,2013-02-23 18:33:00,
2013-02-23 12:38:00,34.7,24.8,30.02,WSW,248,6.0,7.0,67,0.02,,,0.08,meteohub,2013-02-23 18:38:00,
2013-02-23 12:43:00,34.5,24.6,30.02,SW,225,4.0,7.0,67,0.02,,,0.08,meteohub,2013-02-23 18:43:00,
2013-02-23 12:48:00,34.7,24.8,30.00,WSW,248,6.0,8.0,67,0.05,,,0.11,meteohub,2013-02-23 18:48:00,
2013-02-23 12:53:00,34.7,24.8,30.00,WSW,248,8.0,8.0,67,0.05,,,0.11,meteohub,2013-02-23 18:53:00,
2013-02-23 12:58:00,34.5,24.6,30.00,WSW,248,2.0,8.0,67,0.05,,,0.11,meteohub,2013-02-23 18:58:00,
2013-02-23 13:03:00,34.7,24.4,30.00,WSW,248,4.0,8.0,66,0.05,,,0.11,meteohub,2013-02-23 19:03:00,
2013-02-23 13:08:00,34.7,24.8,29.99,WSW,248,3.0,13.0,67,0.03,,,0.11,meteohub,2013-02-23 19:08:00,
2013-02-23 13:13:00,34.7,24.8,29.99,WSW,248,4.0,13.0,67,0.03,,,0.11,meteohub,2013-02-23 19:13:00,
2013-02-23 13:18:00,34.9,25.0,29.99,WSW,248,4.0,13.0,67,0.03,,,0.11,meteohub,2013-02-23 19:18:00,
2013-02-23 13:23:00,34.9,25.0,29.99,WSW,248,8.0,8.0,67,0.06,,,0.13,meteohub,2013-02-23 19:23:00,
2013-02-23 13:28:00,35.1,25.2,29.97,WSW,248,3.0,8.0,67,0.06,,,0.13,meteohub,2013-02-23 19:28:00,
2013-02-23 13:33:00,35.4,25.5,29.97,West,270,3.0,8.0,67,0.06,,,0.13,meteohub,2013-02-23 19:33:00,
2013-02-23 13:38:00,35.6,25.7,29.97,WSW,248,3.0,8.0,67,0.06,,,0.13,meteohub,2013-02-23 19:38:00,
2013-02-23 13:43:00,35.6,26.1,29.97,WSW,248,3.0,5.0,68,0.06,,,0.13,meteohub,2013-02-23 19:43:00,
2013-02-23 13:48:00,36.0,26.4,30.03,West,270,6.0,6.0,68,0.03,,,0.13,meteohub,2013-02-23 19:48:00,
2013-02-23 13:53:00,36.3,26.4,30.03,West,270,6.0,6.0,67,0.03,,,0.13,meteohub,2013-02-23 19:53:00,
2013-02-23 13:58:00,36.5,26.2,30.03,SSW,203,6.0,6.0,66,0.03,,,0.13,meteohub,2013-02-23 19:58:00,
2013-02-23 14:03:00,36.9,26.2,30.03,SSW,203,6.0,6.0,65,0.03,,,0.13,meteohub,2013-02-23 20:03:00,
2013-02-23 14:08:00,36.9,26.6,30.03,South,180,2.0,6.0,66,0.03,,,0.13,meteohub,2013-02-23 20:08:00,
2013-02-23 14:13:00,37.0,26.8,30.03,South,180,2.0,6.0,66,0.06,,,0.16,meteohub,2013-02-23 20:13:00,
2013-02-23 14:18:00,37.4,26.8,30.02,South,180,2.0,6.0,65,0.03,,,0.16,meteohub,2013-02-23 20:18:00,
2013-02-23 14:23:00,37.6,27.0,30.02,South,180,2.0,6.0,65,0.03,,,0.16,meteohub,2013-02-23 20:23:00,
2013-02-23 14:28:00,37.9,26.4,30.02,North,-999,-999.0,2.0,63,0.03,,,0.16,meteohub,2013-02-23 20:28:00,
2013-02-23 14:33:00,37.9,26.4,30.02,North,-999,-999.0,2.0,63,0.03,,,0.16,meteohub,2013-02-23 20:33:00,
2013-02-23 14:38:00,38.1,27.3,30.02,North,-999,-999.0,2.0,65,0.03,,,0.16,meteohub,2013-02-23 20:38:00,
2013-02-23 14:43:00,38.5,27.7,30.02,North,-999,-999.0,-999.0,65,0.03,,,0.16,meteohub,2013-02-23 20:43:00,
2013-02-23 14:48:00,38.5,27.3,30.02,North,-999,-999.0,-999.0,64,0.03,,,0.16,meteohub,2013-02-23 20:48:00,
2013-02-23 14:53:00,38.8,27.7,30.02,North,-999,-999.0,-999.0,64,0.03,,,0.16,meteohub,2013-02-23 20:53:00,
2013-02-23 14:58:00,39.0,27.5,30.02,North,-999,-999.0,-999.0,63,0.03,,,0.16,meteohub,2013-02-23 20:58:00,
2013-02-23 15:03:00,38.8,27.7,30.02,North,-999,-999.0,-999.0,64,0.03,,,0.16,meteohub,2013-02-23 21:03:00,
2013-02-23 15:08:00,39.0,27.9,30.01,North,-999,-999.0,-999.0,64,0.00,,,0.16,meteohub,2013-02-23 21:08:00,
2013-02-23 15:13:00,39.2,27.3,30.01,North,-999,-999.0,-999.0,62,0.03,,,0.19,meteohub,2013-02-23 21:13:00,
2013-02-23 15:18:00,39.2,27.3,30.01,North,-999,-999.0,-999.0,62,0.03,,,0.19,meteohub,2013-02-23 21:18:00,
2013-02-23 15:23:00,39.2,27.7,30.01,North,-999,-999.0,-999.0,63,0.03,,,0.19,meteohub,2013-02-23 21:23:00,
2013-02-23 15:28:00,39.4,27.9,30.00,North,-999,-999.0,-999.0,63,0.03,,,0.19,meteohub,2013-02-23 21:28:00,
2013-02-23 15:33:00,39.7,27.3,30.00,North,-999,-999.0,-999.0,61,0.03,,,0.19,meteohub,2013-02-23 21:33:00,
2013-02-23 15:38:00,39.7,27.3,30.00,North,-999,-999.0,-999.0,61,0.03,,,0.19,meteohub,2013-02-23 21:38:00,
2013-02-23 15:43:00,39.4,27.5,30.00,North,-999,-999.0,-999.0,62,0.03,,,0.19,meteohub,2013-02-23 21:43:00,
2013-02-23 15:48:00,39.4,27.5,30.00,North,-999,-999.0,-999.0,62,0.03,,,0.19,meteohub,2013-02-23 21:48:00,
2013-02-23 15:53:00,39.4,27.5,30.00,North,-999,-999.0,-999.0,62,0.03,,,0.19,meteohub,2013-02-23 21:53:00,
2013-02-23 15:58:00,39.2,27.3,30.00,North,-999,-999.0,-999.0,62,0.03,,,0.19,meteohub,2013-02-23 21:58:00,
2013-02-23 16:03:00,39.4,27.5,30.00,North,-999,-999.0,-999.0,62,0.03,,,0.19,meteohub,2013-02-23 22:03:00,
2013-02-23 16:08:00,39.7,27.9,30.00,North,-999,-999.0,-999.0,62,0.00,,,0.19,meteohub,2013-02-23 22:08:00,
2013-02-23 16:13:00,39.7,27.3,30.00,North,-999,-999.0,-999.0,61,0.00,,,0.19,meteohub,2013-02-23 22:13:00,
2013-02-23 16:18:00,39.4,27.1,30.00,North,-999,-999.0,-999.0,61,0.00,,,0.19,meteohub,2013-02-23 22:18:00,
2013-02-23 16:23:00,39.2,27.0,30.00,North,-999,-999.0,-999.0,61,0.00,,,0.19,meteohub,2013-02-23 22:23:00,
2013-02-23 16:28:00,39.2,26.4,29.98,North,-999,-999.0,-999.0,60,0.00,,,0.19,meteohub,2013-02-23 22:28:00,
2013-02-23 16:33:00,39.0,26.8,29.98,North,-999,-999.0,-999.0,61,0.00,,,0.19,meteohub,2013-02-23 22:33:00,
2013-02-23 16:38:00,39.0,26.8,29.98,North,-999,-999.0,-999.0,61,0.00,,,0.19,meteohub,2013-02-23 22:38:00,
2013-02-23 16:43:00,39.0,26.8,29.98,North,-999,-999.0,-999.0,61,0.00,,,0.19,meteohub,2013-02-23 22:43:00,
2013-02-23 16:48:00,39.0,26.8,29.99,North,-999,-999.0,-999.0,61,0.00,,,0.19,meteohub,2013-02-23 22:48:00,
2013-02-23 16:53:00,39.0,26.8,29.99,North,-999,-999.0,-999.0,61,0.00,,,0.19,meteohub,2013-02-23 22:53:00,
2013-02-23 16:58:00,38.5,26.2,29.99,North,-999,-999.0,-999.0,61,0.00,,,0.19,meteohub,2013-02-23 22:58:00,
2013-02-23 17:03:00,38.5,26.2,29.99,North,-999,-999.0,-999.0,61,0.00,,,0.19,meteohub,2013-02-23 23:03:00,
2013-02-23 17:08:00,38.3,26.4,30.00,North,-999,-999.0,-999.0,62,0.00,,,0.19,meteohub,2013-02-23 23:08:00,
2013-02-23 17:13:00,38.3,26.4,30.00,North,-999,-999.0,-999.0,62,0.00,,,0.19,meteohub,2013-02-23 23:13:00,
2013-02-23 17:18:00,37.9,26.1,30.00,North,-999,-999.0,-999.0,62,0.00,,,0.19,meteohub,2013-02-23 23:18:00,
2013-02-23 17:23:00,37.8,25.9,30.00,North,-999,-999.0,-999.0,62,0.00,,,0.19,meteohub,2013-02-23 23:23:00,
2013-02-23 17:28:00,37.6,25.7,29.97,North,-999,-999.0,-999.0,62,0.00,,,0.19,meteohub,2013-02-23 23:28:00,
2013-02-23 17:33:00,37.2,25.3,29.97,North,-999,-999.0,-999.0,62,0.00,,,0.19,meteohub,2013-02-23 23:33:00,
2013-02-23 17:38:00,37.0,25.2,29.97,North,-999,-999.0,-999.0,62,0.00,,,0.19,meteohub,2013-02-23 23:38:00,
2013-02-23 17:43:00,37.0,25.2,29.97,North,-999,-999.0,-999.0,62,0.00,,,0.19,meteohub,2013-02-23 23:43:00,
2013-02-23 17:48:00,36.9,25.0,29.96,North,-999,-999.0,-999.0,62,0.00,,,0.19,meteohub,2013-02-23 23:48:00,
2013-02-23 17:54:00,36.3,25.0,29.96,North,-999,-999.0,-999.0,63,0.00,,,0.19,meteohub,2013-02-23 23:54:00,
2013-02-23 17:58:00,36.1,24.8,29.97,North,-999,-999.0,-999.0,63,0.00,,,0.19,meteohub,2013-02-23 23:58:00,
2013-02-23 18:03:00,35.8,24.4,29.97,North,-999,-999.0,-999.0,63,0.00,,,0.19,meteohub,2013-02-24 00:03:00,
2013-02-23 18:09:00,35.6,24.3,29.97,North,-999,-999.0,-999.0,63,0.00,,,0.19,meteohub,2013-02-24 00:09:00,
2013-02-23 18:13:00,35.4,24.4,29.97,North,-999,-999.0,-999.0,64,0.00,,,0.19,meteohub,2013-02-24 00:13:00,
2013-02-23 18:19:00,34.9,23.5,29.97,North,-999,-999.0,-999.0,63,0.00,,,0.19,meteohub,2013-02-24 00:19:00,
2013-02-23 18:24:00,34.7,23.7,29.97,North,-999,-999.0,-999.0,64,0.00,,,0.19,meteohub,2013-02-24 00:24:00,
2013-02-23 18:29:00,34.3,23.4,29.97,North,-999,-999.0,-999.0,64,0.00,,,0.19,meteohub,2013-02-24 00:29:00,
2013-02-23 18:34:00,33.8,23.4,29.97,North,-999,-999.0,-999.0,65,0.00,,,0.19,meteohub,2013-02-24 00:34:00,
2013-02-23 18:39:00,33.6,23.2,29.97,North,-999,-999.0,-999.0,65,0.00,,,0.19,meteohub,2013-02-24 00:39:00,
2013-02-23 18:44:00,33.3,23.2,29.97,North,-999,-999.0,-999.0,66,0.00,,,0.19,meteohub,2013-02-24 00:44:00,
2013-02-23 18:49:00,32.7,22.6,29.98,North,-999,-999.0,-999.0,66,0.00,,,0.19,meteohub,2013-02-24 00:49:00,
2013-02-23 18:54:00,32.5,22.8,29.98,North,-999,-999.0,-999.0,67,0.00,,,0.19,meteohub,2013-02-24 00:54:00,
2013-02-23 18:59:00,32.2,22.5,29.98,North,-999,-999.0,-999.0,67,0.00,,,0.19,meteohub,2013-02-24 00:59:00,
2013-02-23 19:04:00,31.8,22.5,29.98,North,-999,-999.0,-999.0,68,0.00,,,0.19,meteohub,2013-02-24 01:04:00,
2013-02-23 19:09:00,31.5,22.1,29.97,North,-999,-999.0,-999.0,68,0.00,,,0.19,meteohub,2013-02-24 01:09:00,
2013-02-23 19:14:00,31.1,21.7,29.98,North,-999,-999.0,-999.0,68,0.00,,,0.19,meteohub,2013-02-24 01:14:00,
2013-02-23 19:19:00,30.7,21.7,29.98,North,-999,-999.0,-999.0,69,0.00,,,0.19,meteohub,2013-02-24 01:19:00,
2013-02-23 19:24:00,30.4,21.4,29.98,North,-999,-999.0,-999.0,69,0.00,,,0.19,meteohub,2013-02-24 01:24:00,
2013-02-23 19:29:00,30.4,21.7,29.99,North,-999,-999.0,-999.0,70,0.00,,,0.19,meteohub,2013-02-24 01:29:00,
2013-02-23 19:34:00,30.0,21.4,29.99,North,-999,-999.0,-999.0,70,0.00,,,0.19,meteohub,2013-02-24 01:34:00,
2013-02-23 19:39:00,29.7,21.4,29.99,North,-999,-999.0,-999.0,71,0.00,,,0.19,meteohub,2013-02-24 01:39:00,
2013-02-23 19:44:00,29.7,21.4,29.99,North,-999,-999.0,-999.0,71,0.00,,,0.19,meteohub,2013-02-24 01:44:00,
2013-02-23 19:49:00,29.1,20.8,29.99,North,-999,-999.0,-999.0,71,0.00,,,0.19,meteohub,2013-02-24 01:49:00,
2013-02-23 19:54:00,28.9,21.0,29.99,North,-999,-999.0,-999.0,72,0.00,,,0.19,meteohub,2013-02-24 01:54:00,
2013-02-23 19:59:00,28.9,21.0,29.99,North,-999,-999.0,-999.0,72,0.00,,,0.19,meteohub,2013-02-24 01:59:00,
2013-02-23 20:04:00,28.9,21.0,29.99,North,-999,-999.0,-999.0,72,0.00,,,0.19,meteohub,2013-02-24 02:04:00,
2013-02-23 20:09:00,28.6,20.7,29.98,North,-999,-999.0,-999.0,72,0.00,,,0.19,meteohub,2013-02-24 02:09:00,
2013-02-23 20:14:00,28.6,21.0,29.98,North,-999,-999.0,-999.0,73,0.00,,,0.19,meteohub,2013-02-24 02:14:00,
2013-02-23 20:19:00,28.2,20.7,29.98,North,-999,-999.0,-999.0,73,0.00,,,0.19,meteohub,2013-02-24 02:19:00,
2013-02-23 20:24:00,27.9,20.3,29.98,North,-999,-999.0,-999.0,73,0.00,,,0.19,meteohub,2013-02-24 02:24:00,
2013-02-23 20:29:00,27.7,20.5,29.98,North,-999,-999.0,-999.0,74,0.00,,,0.19,meteohub,2013-02-24 02:29:00,
2013-02-23 20:34:00,27.5,19.9,29.98,North,-999,-999.0,-999.0,73,0.00,,,0.19,meteohub,2013-02-24 02:34:00,
2013-02-23 20:39:00,27.5,20.3,29.98,North,-999,-999.0,-999.0,74,0.00,,,0.19,meteohub,2013-02-24 02:39:00,
2013-02-23 20:44:00,27.1,19.9,29.98,North,-999,-999.0,-999.0,74,0.00,,,0.19,meteohub,2013-02-24 02:44:00,
2013-02-23 20:49:00,27.0,19.8,30.00,North,-999,-999.0,-999.0,74,0.00,,,0.19,meteohub,2013-02-24 02:49:00,
2013-02-23 20:54:00,26.8,19.9,30.00,North,-999,-999.0,-999.0,75,0.00,,,0.19,meteohub,2013-02-24 02:54:00,
2013-02-23 20:59:00,26.8,19.9,30.00,North,-999,-999.0,-999.0,75,0.00,,,0.19,meteohub,2013-02-24 02:59:00,
2013-02-23 21:04:00,26.8,19.9,30.00,North,-999,-999.0,-999.0,75,0.00,,,0.19,meteohub,2013-02-24 03:04:00,
2013-02-23 21:09:00,26.4,19.9,30.01,North,-999,-999.0,-999.0,76,0.00,,,0.19,meteohub,2013-02-24 03:09:00,
2013-02-23 21:14:00,26.2,19.8,30.01,North,-999,-999.0,-999.0,76,0.00,,,0.19,meteohub,2013-02-24 03:14:00,
2013-02-23 21:19:00,26.4,19.9,30.01,North,-999,-999.0,-999.0,76,0.00,,,0.19,meteohub,2013-02-24 03:19:00,
2013-02-23 21:24:00,26.1,19.6,30.01,North,-999,-999.0,-999.0,76,0.00,,,0.19,meteohub,2013-02-24 03:24:00,
2013-02-23 21:29:00,26.1,19.6,30.01,North,-999,-999.0,-999.0,76,0.00,,,0.19,meteohub,2013-02-24 03:29:00,
2013-02-23 21:34:00,26.1,19.8,30.01,North,-999,-999.0,-999.0,77,0.00,,,0.19,meteohub,2013-02-24 03:34:00,
2013-02-23 21:39:00,26.1,19.8,30.01,North,-999,-999.0,-999.0,77,0.00,,,0.19,meteohub,2013-02-24 03:39:00,
2013-02-23 21:44:00,25.7,19.6,30.01,North,-999,-999.0,-999.0,77,0.00,,,0.19,meteohub,2013-02-24 03:44:00,
2013-02-23 21:49:00,25.7,19.6,30.00,North,-999,-999.0,-999.0,77,0.00,,,0.19,meteohub,2013-02-24 03:49:00,
2013-02-23 21:54:00,25.3,19.2,30.00,North,-999,-999.0,-999.0,77,0.00,,,0.19,meteohub,2013-02-24 03:54:00,
2013-02-23 21:59:00,25.3,19.2,30.00,North,-999,-999.0,-999.0,77,0.00,,,0.19,meteohub,2013-02-24 03:59:00,
2013-02-23 22:04:00,25.3,19.2,30.00,North,-999,-999.0,-999.0,77,0.00,,,0.19,meteohub,2013-02-24 04:04:00,
2013-02-23 22:09:00,25.0,18.9,30.00,North,-999,-999.0,-999.0,77,0.00,,,0.19,meteohub,2013-02-24 04:09:00,
2013-02-23 22:14:00,25.0,19.0,30.00,North,-999,-999.0,-999.0,78,0.00,,,0.19,meteohub,2013-02-24 04:14:00,
2013-02-23 22:19:00,24.8,18.9,30.00,North,-999,-999.0,-999.0,78,0.00,,,0.19,meteohub,2013-02-24 04:19:00,
2013-02-23 22:24:00,25.0,19.0,30.00,North,-999,-999.0,-999.0,78,0.00,,,0.19,meteohub,2013-02-24 04:24:00,
2013-02-23 22:29:00,24.6,18.7,29.99,North,-999,-999.0,-999.0,78,0.00,,,0.19,meteohub,2013-02-24 04:29:00,
2013-02-23 22:34:00,24.6,18.7,29.99,North,-999,-999.0,-999.0,78,0.00,,,0.19,meteohub,2013-02-24 04:34:00,
2013-02-23 22:39:00,24.6,18.7,29.99,North,-999,-999.0,-999.0,78,0.00,,,0.19,meteohub,2013-02-24 04:39:00,
2013-02-23 22:44:00,24.3,18.3,29.99,North,-999,-999.0,-999.0,78,0.00,,,0.19,meteohub,2013-02-24 04:44:00,
2013-02-23 22:49:00,23.9,18.0,30.00,North,-999,-999.0,-999.0,78,0.00,,,0.19,meteohub,2013-02-24 04:49:00,
2013-02-23 22:54:00,23.7,18.0,30.01,North,-999,-999.0,-999.0,78,0.00,,,0.19,meteohub,2013-02-24 04:54:00,
2013-02-23 22:59:00,23.5,18.0,30.01,South,180,0.0,-999.0,79,0.00,,,0.19,meteohub,2013-02-24 04:59:00,
2013-02-23 23:00:00,23.5,18.0,30.01,South,180,0.0,-999.0,79,0.00,,,0.19,meteohub,2013-02-24 05:00:00,
2013-02-23 23:05:00,23.4,17.8,30.01,West,270,0.0,0.0,79,0.00,,,0.19,meteohub,2013-02-24 05:05:00,
2013-02-23 23:10:00,23.4,17.8,30.01,West,270,0.0,0.0,79,0.00,,,0.19,meteohub,2013-02-24 05:10:00,
2013-02-23 23:15:00,23.2,18.0,30.01,WNW,293,0.0,0.0,80,0.00,,,0.19,meteohub,2013-02-24 05:15:00,
2013-02-23 23:20:00,23.2,18.0,30.01,WSW,248,0.0,0.0,80,0.00,,,0.19,meteohub,2013-02-24 05:20:00,
2013-02-23 23:26:00,23.2,18.0,30.01,WSW,248,0.0,0.0,80,0.00,,,0.19,meteohub,2013-02-24 05:26:00,
2013-02-23 23:31:00,23.0,17.8,30.01,WSW,248,0.0,0.0,80,0.00,,,0.19,meteohub,2013-02-24 05:31:00,
2013-02-23 23:36:00,23.0,17.8,30.01,WSW,248,0.0,0.0,80,0.00,,,0.19,meteohub,2013-02-24 05:36:00,
2013-02-23 23:41:00,23.2,18.0,30.01,WSW,248,0.0,0.0,80,0.00,,,0.19,meteohub,2013-02-24 05:41:00,
2013-02-23 23:46:00,22.8,17.6,30.01,WSW,248,0.0,0.0,80,0.00,,,0.19,meteohub,2013-02-24 05:46:00,
2013-02-23 23:51:00,22.8,17.6,30.01,WSW,248,0.0,0.0,80,0.00,,,0.19,meteohub,2013-02-24 05:51:00,
2013-02-23 23:56:00,22.8,18.0,30.01,ENE,68,0.0,0.0,81,0.00,,,0.19,meteohub,2013-02-24 05:56:00,